Regional Weather Roundup
Issued by NWS

Home | Current Version | Previous Version | Graphics & Text | Print | Product List | Glossary On
Versions: 1 2 3 4 5 6 7 8 9 10 11 12 13 14 15 16 17 18 19 20 21 22 23 24 25 26 27 28 29 30 31 32 33 34 35 36 37 38 39 40 41 42 43 44 45 46 47 48 49 50
000
ASUS45 KTFX 011410
RWRMT
MONTANA REGIONAL WEATHER ROUNDUP
NATIONAL WEATHER SERVICE GREAT FALLS MT
800 AM MDT MON JUN 01 2015

NOTE: "FAIR" INDICATES FEW OR NO CLOUDS BELOW 12000 FEET WITH NO
SIGNIFICANT WEATHER AND/OR OBSTRUCTIONS TO VISIBILITY.

MTZ001>007-043-011500-
WEST OF THE DIVIDE

CITY           SKY/WX    TMP DP  RH WIND       PRES   REMARKS
KALISPELL      MOSUNNY   60  47  61 W3        29.87S
MISSOULA       MOSUNNY   57  52  83 VRB3      29.92R
BUTTE          SUNNY     51  47  86 SE7       30.01S
MULLAN PASS    CLOUDY    55  43  63 SE5       29.97R
DEER LODGE       N/A     57  50  77 S3        30.00S
EUREKA           N/A     57  46  67 CALM      29.91S
HAMILTON         N/A     57  48  72 E2        29.91S
LIBBY            N/A     55  46  71 CALM      29.88F
PLAINS           N/A     59  52  77 CALM      29.88R
RONAN            N/A     61  53  74 NW3       29.93R
$$

MTZ008-052>055-011500-
SOUTHWEST MONTANA

CITY           SKY/WX    TMP DP  RH WIND       PRES   REMARKS
BOZEMAN        PTSUNNY   56  52  86 N5        29.94S
DILLON         MOSUNNY   55  48  77 S5        29.97R
W YELLOWSTONE  CLOUDY    46  45  93 CALM      30.09F
THREE FORKS      N/A     58  23  26 NW1       29.94S
$$

MTZ009-010-012-014-046-048-049-054-011500-
EAST SLOPES AND CENTRAL MONTANA

CITY           SKY/WX    TMP DP  RH WIND       PRES   REMARKS
CUT BANK       MOSUNNY   58  46  64 N18       29.91R
GREAT FALLS    CLOUDY    63  51  65 E6        29.88F
HELENA         PTSUNNY   59  52  77 N6        29.92S
CONRAD           N/A     61  51  69 NW10      29.93S
$$

MTZ011-013-016-021-045-047-050-051-011500-
NORTH CENTRAL MONTANA

CITY           SKY/WX    TMP DP  RH WIND       PRES   REMARKS
HAVRE          SUNNY     63  49  60 NW12      29.84R
LEWISTOWN      CLOUDY    64  51  62 CALM      29.92R
N BAR RANCH    CLOUDY    63  48  59 CALM      29.94R
CHINOOK          N/A     64  52  63 NW9       29.84R
FORT BENTON      N/A     64  52  63 SW6       29.88F
$$

MTZ017>020-022>027-061-062-011500-
NORTHEAST MONTANA

CITY           SKY/WX    TMP DP  RH WIND       PRES   REMARKS
GLASGOW        MOSUNNY   64  54  69 SE8       29.78F
JORDAN           N/A     67  53  61 W8        29.81S
SIDNEY         MOSUNNY   63  54  72 S7        29.84F
WOLF POINT     MOSUNNY   64  55  72 CALM      29.80F
MALTA            N/A     63  53  69 CALM      29.78R
PLENTYWOOD       N/A     61  54  77 SE10      29.82F
POPLAR           N/A     66  55  68 CALM      29.81S
SCOBEY           N/A     62  52  70 S5        29.80S
$$

MTZ028>42-056>058-011500-
SOUTHCENTRAL AND SOUTHEAST MONTANA

CITY           SKY/WX    TMP DP  RH WIND       PRES   REMARKS
BAKER          PTSUNNY   63  55  75 SE10      29.89F
BILLINGS       CLOUDY    61  51  70 SW6       29.90S
LIVINGSTON     MOSUNNY   55  48  77 W9        29.95R
MILES CITY     MOSUNNY   67  56  67 S6        29.86R
BIG TIMBER       N/A     63  48  59 SW10      29.93S
LAUREL           N/A     61  52  72 SW3       29.90S
ROUNDUP          N/A     60  50  69 S8        29.81R
$$

REGIONAL REPORTS...DAKOTAS

CITY           SKY/WX    TMP DP  RH WIND       PRES   REMARKS
WILLISTON      SUNNY     60  50  69 SE9       29.84F
MINOT          PTSUNNY   60  48  64 SE18      29.91F
DICKINSON      MOSUNNY   57  50  77 S14       29.88F
BEACH          FAIR      61  59  94 S14G20    29.87F
CROSBY         FAIR      61  54  77 S23       29.81F
WATFORD CITY   FAIR      59  52  77 S6        29.85R
BISMARCK       PTSUNNY   58  49  72 S16       29.98F
GRAND FORKS    CLOUDY    59  43  55 S20G25    30.10F
FARGO          CLOUDY    58  44  60 SE20G29   30.11F
BUFFALO SD       N/A     58  52  80 S9        29.87F
RAPID CITY     MOSUNNY   62  56  80 SE5       29.96F
$$

REGIONAL REPORTS...WYOMING/IDAHO/WASHINGTON

CITY           SKY/WX    TMP DP  RH WIND       PRES   REMARKS
GILLETTE       SUNNY     64  54  69 SE12      29.96F
SHERIDAN       PTSUNNY   62  51  67 CALM      29.92F
BUFFALO WY       N/A     65  49  56 S7        29.99S
CODY           CLOUDY    63  43  48 SW8       29.98S
YELLOWSTONE LA   N/A     49  41  74 CALM      30.17F
IDAHO FALLS    PTSUNNY   61  50  67 NE9       29.93R
SALMON         CLOUDY    54  48  82 SE3       29.93S
BOISE          LGT RAIN  67  54  63 E13G21    29.88R
SPOKANE        CLOUDY    62  50  64 NE7       29.81F
$$

REGIONAL REPORTS...ALBERTA

CITY           SKY/WX    TMP DP  RH WIND       PRES   REMARKS
EDMONTON       SUNNY     54  45  71 W2        29.89R
CALGARY        MOSUNNY   55  43  62 S6        29.96R
LETHBRIDGE     PTSUNNY   54  46  76 W12       29.94R
MEDICINE HAT   PTSUNNY   59  48  67 N8        29.89R
$$

REGIONAL REPORTS...SASKATCHEWAN

CITY           SKY/WX    TMP DP  RH WIND       PRES   REMARKS
SWIFT CURRENT  SUNNY     61  50  67 NW13      29.83R
REGINA         CLOUDY    57  50  77 SE17      29.81R
SASKATOON      MOSUNNY   59  50  72 NW13G21   29.81R
$$



USA.gov is the U.S. government's official web portal to all federal, state and local government web resources and services.